M3YFM-13 Weather Reports


time (UTC)temp
C
wind
direction
speed
KPH
gust
KPH
rain 1hr
cm
rain 24hr
cm
rain mn
cm
humidity
%
barometer
mb
20260502221422 13 304 3.2 8.0 0.00 0.00 0.28 86
20260502220922 13 300 1.6 4.8 0.00 0.00 0.28 86
20260502220421 13 305 1.6 6.4 0.00 0.00 0.28 86
20260502215921 13 283 1.6 6.4 0.00 0.00 0.28 86
20260502215421 13 291 0.0 4.8 0.00 0.00 0.28 86
20260502214920 13 315 1.6 8.0 0.00 0.00 0.28 86
20260502214419 13 293 0.0 1.6 0.00 0.00 0.28 86
20260502213919 13 0 0.0 0.0 0.00 0.00 0.28 86
20260502213419 13 0 0.0 0.0 0.00 0.00 0.28 86
20260502212919 13 281 1.6 6.4 0.00 0.00 0.28 85
20260502212418 13 290 0.0 4.8 0.00 0.00 0.28 85
20260502211918 13 270 0.0 4.8 0.00 0.00 0.28 85
20260502211418 13 276 0.0 4.8 0.00 0.00 0.28 85
20260502210918 13 291 1.6 6.4 0.00 0.00 0.28 85
20260502210417 13 283 1.6 4.8 0.00 0.00 0.28 85
20260502205917 14 273 0.0 4.8 0.00 0.00 0.28 85
20260502205417 13 319 0.0 1.6 0.00 0.00 0.28 85
20260502204916 13 288 3.2 8.0 0.00 0.00 0.28 85
20260502204416 13 269 3.2 9.7 0.00 0.00 0.28 85
20260502203916 13 274 4.8 8.0 0.00 0.00 0.28 85
20260502203416 14 284 1.6 6.4 0.00 0.00 0.28 85
20260502202915 13 283 1.6 6.4 0.00 0.00 0.28 85
20260502202415 14 274 3.2 11.3 0.00 0.00 0.28 85
20260502201414 14 263 1.6 8.0 0.00 0.00 0.28 85
20260502200914 14 288 1.6 6.4 0.00 0.00 0.28 85
20260502200414 14 290 1.6 8.0 0.00 0.00 0.28 85
20260502195913 14 298 3.2 8.0 0.00 0.00 0.28 85
20260502194913 14 0 0.0 0.0 0.00 0.00 0.28 84
20260502194413 14 0 0.0 0.0 0.00 0.00 0.28 84
20260502193912 14 0 0.0 0.0 0.00 0.00 0.28 84
20260502193412 14 0 0.0 0.0 0.00 0.00 0.28 84
20260502192912 14 0 0.0 0.0 0.00 0.00 0.28 84
20260502192412 14 0 0.0 0.0 0.00 0.00 0.28 84
20260502191911 14 0 0.0 0.0 0.00 0.00 0.28 84
20260502191411 14 0 0.0 0.0 0.00 0.00 0.28 84
20260502190911 14 0 0.0 0.0 0.00 0.00 0.28 84
20260502185910 14 0 0.0 0.0 0.00 0.00 0.28 84
20260502185410 14 139 1.6 6.4 0.00 0.00 0.28 84
20260502184910 14 105 0.0 1.6 0.00 0.00 0.28 84
20260502184409 14 172 0.0 4.8 0.00 0.00 0.28 84
20260502183908 14 0 0.0 0.0 0.00 0.00 0.28 84
20260502183408 14 0 0.0 0.0 0.00 0.00 0.28 84
20260502182908 14 0 0.0 0.0 0.00 0.00 0.28 84
20260502182407 14 0 0.0 0.0 0.00 0.00 0.28 84
20260502181907 14 0 0.0 0.0 0.00 0.00 0.28 84
20260502181407 14 0 0.0 0.0 0.00 0.00 0.28 84
20260502180907 14 0 0.0 0.0 0.00 0.00 0.28 84
20260502180403 14 0 0.0 0.0 0.00 0.00 0.28 84
20260502170355 14 0 0.0 0.0 0.00 0.00 0.25 81
20260502163853 15 232 0.0 4.8 0.00 0.00 0.23 78
20260502163353 15 248 3.2 9.7 0.00 0.00 0.20 78
20260502162353 16 245 0.0 1.6 0.00 0.00 0.18 76
20260502161852 16 0 0.0 0.0 0.00 0.00 0.18 76
20260502161352 15 0 0.0 0.0 0.00 0.00 0.15 75
20260502160852 16 0 0.0 0.0 0.00 0.00 0.13 73
20260502160352 16 266 0.0 3.2 0.00 0.00 0.10 72
20260502151848 18 240 3.2 6.4 0.00 0.00 0.00 53
20260502151347 18 262 3.2 9.7 0.00 0.00 0.00 51
20260502150847 18 190 6.4 11.3 0.00 0.00 0.00 48
20260502130340 21 349 0.0 3.2 0.00 0.00 0.00 40
20260502123338 20 198 1.6 4.8 0.00 0.00 0.00 40
20260502122838 21 183 1.6 6.4 0.00 0.00 0.00 39
20260502122336 21 309 1.6 6.4 0.00 0.00 0.00 38
20260502121836 21 249 1.6 8.0 0.00 0.00 0.00 38
20260502121336 21 191 4.8 11.3 0.00 0.00 0.00 38
20260502120835 21 293 3.2 9.7 0.00 0.00 0.00 38
20260502120335 21 359 1.6 6.4 0.00 0.00 0.00 39
20260502115835 21 277 3.2 8.0 0.00 0.00 0.00 39
20260502115335 21 287 1.6 8.0 0.00 0.00 0.00 39
20260502114834 20 325 3.2 4.8 0.00 0.00 0.00 40
20260502114334 20 307 1.6 6.4 0.00 0.00 0.00 42
20260502113834 20 218 0.0 3.2 0.00 0.00 0.00 43
20260502113334 20 217 3.2 8.0 0.00 0.00 0.00 42
20260502112833 20 219 1.6 8.0 0.00 0.00 0.00 42
20260502112333 20 319 0.0 1.6 0.00 0.00 0.00 41
20260502111833 20 270 3.2 9.7 0.00 0.00 0.00 40
20260502111332 20 309 1.6 8.0 0.00 0.00 0.00 41
20260502110832 20 293 1.6 6.4 0.00 0.00 0.00 42
20260502110332 19 242 3.2 9.7 0.00 0.00 0.00 43
20260502105832 19 224 1.6 8.0 0.00 0.00 0.00 44
20260502105331 18 113 1.6 3.2 0.00 0.00 0.00 45
20260502104831 18 204 0.0 4.8 0.00 0.00 0.00 45
20260502104331 19 239 1.6 8.0 0.00 0.00 0.00 45
20260502103830 19 214 1.6 8.0 0.00 0.00 0.00 43
20260502103330 19 262 1.6 4.8 0.00 0.00 0.00 42
20260502102830 18 256 3.2 8.0 0.00 0.00 0.00 43
20260502102330 19 245 1.6 6.4 0.00 0.00 0.00 44
20260502101829 18 252 3.2 8.0 0.00 0.00 0.00 46
20260502101329 18 280 1.6 8.0 0.00 0.00 0.00 46
20260502100829 18 269 1.6 6.4 0.00 0.00 0.00 47
20260502091326 16 245 1.6 8.0 0.00 0.00 0.00 53
20260502090825 17 266 1.6 4.8 0.00 0.00 0.00 53
20260502090325 17 0 0.0 0.0 0.00 0.00 0.00 53
20260502071315 12 0 0.0 0.0 0.00 0.00 0.00 80
20260502070814 11 0 0.0 0.0 0.00 0.00 0.00 81
20260502070314 11 0 0.0 0.0 0.00 0.00 0.00 82
20260502065814 11 0 0.0 0.0 0.00 0.00 0.00 83
20260502065314 10 0 0.0 0.0 0.00 0.00 0.00 83
20260502064813 10 0 0.0 0.0 0.00 0.00 0.00 84
20260502064313 10 0 0.0 0.0 0.00 0.00 0.00 84
20260502063812 10 0 0.0 0.0 0.00 0.00 0.00 84
20260502061810 10 0 0.0 0.0 0.00 0.00 0.00 85
20260502061309 10 0 0.0 0.0 0.00 0.00 0.00 85
20260502060809 10 0 0.0 0.0 0.00 0.00 0.00 85
20260502060309 9 0 0.0 0.0 0.00 0.00 0.00 85
20260502055809 9 0 0.0 0.0 0.00 0.00 0.00 85
20260502055308 10 0 0.0 0.0 0.00 0.00 0.00 84
20260502054808 10 0 0.0 0.0 0.00 0.00 0.00 84
20260502054308 10 0 0.0 0.0 0.00 0.00 0.00 84
20260502053807 9 0 0.0 0.0 0.00 0.00 0.00 84
20260502053307 10 0 0.0 0.0 0.00 0.00 0.00 84
20260502052807 9 0 0.0 0.0 0.00 0.00 0.00 84
20260502052307 9 0 0.0 0.0 0.00 0.00 0.00 84
20260502051806 9 0 0.0 0.0 0.00 0.00 0.00 84
20260502051306 9 0 0.0 0.0 0.00 0.00 0.00 84
20260502050805 9 0 0.0 0.0 0.00 0.00 0.00 84
20260502050304 10 0 0.0 0.0 0.00 0.00 0.00 83
20260502045804 10 0 0.0 0.0 0.00 0.00 0.00 84
20260502045306 10 0 0.0 0.0 0.00 0.00 0.00 83
20260502044804 10 0 0.0 0.0 0.00 0.00 0.00 83
20260502044302 9 0 0.0 0.0 0.00 0.00 0.00 83
20260502043802 9 0 0.0 0.0 0.00 0.00 0.00 83
20260502043301 10 0 0.0 0.0 0.00 0.00 0.00 83
20260502042801 10 0 0.0 0.0 0.00 0.00 0.00 83
20260502042301 10 0 0.0 0.0 0.00 0.00 0.00 83
20260502041801 10 0 0.0 0.0 0.00 0.00 0.00 83
20260502041300 9 0 0.0 0.0 0.00 0.00 0.00 83
20260502040757 9 0 0.0 0.0 0.00 0.00 0.00 82
20260502040256 10 0 0.0 0.0 0.00 0.00 0.00 82
20260502035254 10 0 0.0 0.0 0.00 0.00 0.00 82
20260502034254 10 0 0.0 0.0 0.00 0.00 0.00 82
20260502033753 10 0 0.0 0.0 0.00 0.00 0.00 82
20260502033253 10 0 0.0 0.0 0.00 0.00 0.00 82
20260502032753 10 0 0.0 0.0 0.00 0.00 0.00 82
20260502032253 10 0 0.0 0.0 0.00 0.00 0.00 82
20260502032223 10 0 0.0 0.0 0.00 0.00 0.00 82
20260502031752 10 0 0.0 0.0 0.00 0.00 0.00 82
20260502031252 10 0 0.0 0.0 0.00 0.00 0.00 82
20260502030751 10 0 0.0 0.0 0.00 0.00 0.00 82
20260502030249 10 0 0.0 0.0 0.00 0.00 0.00 82
20260502025749 10 0 0.0 0.0 0.00 0.00 0.00 82
20260502025248 10 0 0.0 0.0 0.00 0.00 0.00 83
20260502024747 10 0 0.0 0.0 0.00 0.00 0.00 83
20260502023746 10 0 0.0 0.0 0.00 0.00 0.00 82
20260502023246 10 0 0.0 0.0 0.00 0.00 0.00 83
20260502022746 10 0 0.0 0.0 0.00 0.00 0.00 83
20260502022245 10 0 0.0 0.0 0.00 0.00 0.00 83
20260502021244 10 0 0.0 0.0 0.00 0.00 0.00 82
20260502020742 10 270 0.0 3.2 0.00 0.00 0.00 82
20260502020234 10 0 0.0 0.0 0.00 0.00 0.00 81
20260502015741 10 0 0.0 0.0 0.00 0.00 0.00 81
20260502014741 10 0 0.0 0.0 0.00 0.00 0.00 81
20260502014240 10 0 0.0 0.0 0.00 0.00 0.00 81
20260502013240 10 0 0.0 0.0 0.00 0.00 0.00 81
20260502012740 10 0 0.0 0.0 0.00 0.00 0.00 81
20260502012239 10 0 0.0 0.0 0.00 0.00 0.00 80
20260502011739 10 0 0.0 0.0 0.00 0.00 0.00 80
20260502011239 11 0 0.0 0.0 0.00 0.00 0.00 80
20260502010737 11 0 0.0 0.0 0.00 0.00 0.00 80
20260502010237 11 0 0.0 0.0 0.00 0.00 0.00 80
20260502005737 11 0 0.0 0.0 0.00 0.00 0.00 80
20260502005237 11 0 0.0 0.0 0.00 0.00 0.00 79
20260502004735 11 339 0.0 1.6 0.00 0.00 0.00 79
20260502004234 11 343 0.0 4.8 0.00 0.00 0.00 78
20260502003734 11 0 0.0 0.0 0.00 0.00 0.00 78
20260502003234 11 305 0.0 4.8 0.00 0.00 0.00 78
20260502002734 11 307 0.0 4.8 0.00 0.00 0.00 78
20260502002233 11 301 0.0 3.2 0.00 0.00 0.00 78
20260502001733 11 288 0.0 3.2 0.00 0.00 0.00 78
20260502001233 12 323 0.0 3.2 0.00 0.00 0.00 78
20260502001056 12 285 0.0 3.2 0.00 0.00 0.00 78
20260502000732 12 285 0.0 3.2 0.00 0.00 0.00 78
20260502000233 12 0 0.0 0.0 0.00 0.00 0.00 78
20260501235906 12 0 0.0 0.0 0.00 0.00 0.00 78
20260501235732 12 0 0.0 0.0 0.00 0.00 0.00 78
20260501235308 12 0 0.0 0.0 0.00 0.00 0.00 78
20260501235232 12 0 0.0 0.0 0.00 0.00 0.00 78
20260501234731 12 304 0.0 4.8 0.00 0.00 0.00 78
20260501234231 12 302 1.6 6.4 0.00 0.00 0.00 79
20260501233731 12 321 1.6 4.8 0.00 0.00 0.00 80
20260501233230 12 0 0.0 0.0 0.00 0.00 0.00 81
20260501232958 12 0 0.0 0.0 0.00 0.00 0.00 81
20260501232730 12 0 0.0 0.0 0.00 0.00 0.00 81
20260501232446 12 0 0.0 0.0 0.00 0.00 0.00 82
20260501232230 12 0 0.0 0.0 0.00 0.00 0.00 82
20260501231729 12 0 0.0 0.0 0.00 0.00 0.00 82
20260501231229 12 0 0.0 0.0 0.00 0.00 0.00 82
20260501230729 12 271 0.0 1.6 0.00 0.00 0.00 82
20260501230228 12 0 0.0 0.0 0.00 0.00 0.00 82
20260501225728 12 311 3.2 6.4 0.00 0.00 0.00 82
20260501224728 12 0 0.0 0.0 0.00 0.00 0.00 82
20260501224227 12 0 0.0 0.0 0.00 0.00 0.00 81
20260501224127 12 0 0.0 0.0 0.00 0.00 0.00 81
20260501223726 12 0 0.0 0.0 0.00 0.00 0.00 81
20260501223226 12 0 0.0 0.0 0.00 0.00 0.00 80
20260501222832 12 0 0.0 0.0 0.00 0.00 0.00 80
20260501222726 12 0 0.0 0.0 0.00 0.00 0.00 80
20260501222225 12 0 0.0 0.0 0.00 0.00 0.00 80
20260501221725 13 0 0.0 0.0 0.00 0.00 0.00 80